Time,TemperatureF,DewpointF,PressureIn,WindDirection,WindDirectionDegrees,WindSpeedMPH,WindSpeedGustMPH,Humidity,HourlyPrecipIn,Conditions,Clouds,dailyrainin,SoftwareType,DateUTC
2013-01-14 00:18:00,60.8,60.2,29.90,SSW,202,1.7,-999.0,98,-99.99,,,0.07,Acu-Link.com,2013-01-14 05:18:00,
2013-01-14 00:33:00,61.0,60.4,29.90,ENE,67,0.0,-999.0,98,-99.99,,,0.13,Acu-Link.com,2013-01-14 05:33:00,
2013-01-14 00:48:00,61.0,60.4,29.91,ESE,112,0.0,-999.0,98,-99.99,,,0.19,Acu-Link.com,2013-01-14 05:48:00,
2013-01-14 01:03:00,61.0,60.4,29.91,East,90,0.0,-999.0,98,-99.99,,,0.32,Acu-Link.com,2013-01-14 06:03:00,
2013-01-14 01:18:00,61.0,60.4,29.91,East,90,0.0,-999.0,98,-99.99,,,0.41,Acu-Link.com,2013-01-14 06:18:00,
2013-01-14 01:34:00,61.0,60.4,29.91,ENE,67,1.1,-999.0,98,-99.99,,,0.44,Acu-Link.com,2013-01-14 06:34:00,
2013-01-14 01:49:00,61.0,60.4,29.91,East,90,1.7,-999.0,98,-99.99,,,0.45,Acu-Link.com,2013-01-14 06:49:00,
2013-01-14 02:04:00,61.0,60.4,29.91,ESE,112,0.0,-999.0,98,-99.99,,,0.46,Acu-Link.com,2013-01-14 07:04:00,
2013-01-14 02:19:00,61.0,60.4,29.91,East,90,0.0,-999.0,98,-99.99,,,0.47,Acu-Link.com,2013-01-14 07:19:00,
2013-01-14 02:34:00,61.0,60.4,29.91,ENE,67,0.0,-999.0,98,-99.99,,,0.48,Acu-Link.com,2013-01-14 07:34:00,
2013-01-14 02:50:00,61.0,60.4,29.91,ENE,67,0.0,-999.0,98,-99.99,,,0.48,Acu-Link.com,2013-01-14 07:50:00,
2013-01-14 03:05:00,60.8,60.2,29.90,NNE,22,0.0,-999.0,98,-99.99,,,0.49,Acu-Link.com,2013-01-14 08:05:00,
2013-01-14 03:20:00,60.8,60.2,29.91,SE,135,0.0,-999.0,98,-99.99,,,0.50,Acu-Link.com,2013-01-14 08:20:00,
2013-01-14 03:35:00,60.6,60.0,29.90,NNE,22,0.0,-999.0,98,-99.99,,,0.50,Acu-Link.com,2013-01-14 08:35:00,
2013-01-14 03:50:00,60.8,60.2,29.90,SSE,157,0.0,-999.0,98,-99.99,,,0.50,Acu-Link.com,2013-01-14 08:50:00,
2013-01-14 04:13:00,60.6,60.0,29.90,SW,225,0.0,-999.0,98,-99.99,,,0.51,Acu-Link.com,2013-01-14 09:13:00,
2013-01-14 04:28:00,60.6,60.0,29.89,NE,45,0.0,-999.0,98,-99.99,,,0.52,Acu-Link.com,2013-01-14 09:28:00,
2013-01-14 04:43:00,60.6,60.0,29.88,ENE,67,0.0,-999.0,98,-99.99,,,0.54,Acu-Link.com,2013-01-14 09:43:00,
2013-01-14 04:58:00,60.6,60.0,29.88,SE,135,0.0,-999.0,98,-99.99,,,0.56,Acu-Link.com,2013-01-14 09:58:00,
2013-01-14 05:13:00,60.6,60.0,29.89,West,270,0.0,-999.0,98,-99.99,,,0.57,Acu-Link.com,2013-01-14 10:13:00,
2013-01-14 05:29:00,60.6,60.0,29.89,NNW,337,0.0,-999.0,98,-99.99,,,0.59,Acu-Link.com,2013-01-14 10:29:00,
2013-01-14 05:44:00,60.6,60.0,29.89,ENE,67,0.0,-999.0,98,-99.99,,,0.61,Acu-Link.com,2013-01-14 10:44:00,
2013-01-14 05:59:00,60.6,60.0,29.89,NNE,22,0.0,-999.0,98,-99.99,,,0.63,Acu-Link.com,2013-01-14 10:59:00,
2013-01-14 06:14:00,60.6,60.0,29.89,ENE,67,0.0,-999.0,98,-99.99,,,0.65,Acu-Link.com,2013-01-14 11:14:00,
2013-01-14 06:30:00,60.6,60.0,29.90,East,90,0.0,-999.0,98,-99.99,,,0.67,Acu-Link.com,2013-01-14 11:30:00,
2013-01-14 06:45:00,60.6,60.0,29.90,NNE,22,0.0,-999.0,98,-99.99,,,0.68,Acu-Link.com,2013-01-14 11:45:00,
2013-01-14 07:00:00,60.6,60.0,29.90,ENE,67,0.0,-999.0,98,-99.99,,,0.68,Acu-Link.com,2013-01-14 12:00:00,
2013-01-14 07:15:00,60.6,60.0,29.91,NE,45,0.0,-999.0,98,-99.99,,,0.68,Acu-Link.com,2013-01-14 12:15:00,
2013-01-14 07:30:00,60.6,60.0,29.91,West,270,0.0,-999.0,98,-99.99,,,0.75,Acu-Link.com,2013-01-14 12:30:00,
2013-01-14 07:46:00,60.6,60.0,29.92,East,90,0.0,-999.0,98,-99.99,,,0.85,Acu-Link.com,2013-01-14 12:46:00,
2013-01-14 08:01:00,60.6,60.0,29.93,ENE,67,0.0,-999.0,98,-99.99,,,0.88,Acu-Link.com,2013-01-14 13:01:00,
2013-01-14 08:16:00,60.6,60.0,29.92,ENE,67,0.0,-999.0,98,-99.99,,,0.93,Acu-Link.com,2013-01-14 13:16:00,
2013-01-14 08:31:00,60.8,60.2,29.93,East,90,0.0,-999.0,98,-99.99,,,0.97,Acu-Link.com,2013-01-14 13:31:00,
2013-01-14 08:46:00,61.0,60.4,29.94,SSE,157,0.0,-999.0,98,-99.99,,,0.98,Acu-Link.com,2013-01-14 13:46:00,
2013-01-14 09:02:00,61.2,60.6,29.94,SSE,157,1.7,-999.0,98,-99.99,,,0.98,Acu-Link.com,2013-01-14 14:02:00,
2013-01-14 09:17:00,61.5,60.9,29.95,South,180,1.7,-999.0,98,-99.99,,,0.99,Acu-Link.com,2013-01-14 14:17:00,
2013-01-14 09:32:00,61.7,61.1,29.94,West,270,0.0,-999.0,98,-99.99,,,1.02,Acu-Link.com,2013-01-14 14:32:00,
2013-01-14 09:47:00,62.1,61.5,29.94,SSE,157,0.0,-999.0,98,-99.99,,,1.03,Acu-Link.com,2013-01-14 14:47:00,
2013-01-14 10:02:00,62.2,61.6,29.95,South,180,0.0,-999.0,98,-99.99,,,1.03,Acu-Link.com,2013-01-14 15:02:00,
2013-01-14 10:18:00,62.6,62.0,29.94,NNE,22,0.0,-999.0,98,-99.99,,,1.04,Acu-Link.com,2013-01-14 15:18:00,
2013-01-14 10:33:00,63.0,62.4,29.95,SW,225,0.0,-999.0,98,-99.99,,,1.04,Acu-Link.com,2013-01-14 15:33:00,
2013-01-14 10:48:00,62.8,62.2,29.94,South,180,1.1,-999.0,98,-99.99,,,1.04,Acu-Link.com,2013-01-14 15:48:00,
2013-01-14 11:03:00,63.0,62.4,29.94,WNW,292,0.0,-999.0,98,-99.99,,,1.05,Acu-Link.com,2013-01-14 16:03:00,
2013-01-14 11:18:00,63.1,62.5,29.93,East,90,1.1,-999.0,98,-99.99,,,1.05,Acu-Link.com,2013-01-14 16:18:00,
2013-01-14 11:34:00,63.1,62.5,29.93,West,270,0.0,-999.0,98,-99.99,,,1.11,Acu-Link.com,2013-01-14 16:34:00,
2013-01-14 11:49:00,63.3,62.7,29.92,SW,225,0.0,-999.0,98,-99.99,,,1.16,Acu-Link.com,2013-01-14 16:49:00,
2013-01-14 12:04:00,63.1,62.5,29.91,WNW,292,0.0,-999.0,98,-99.99,,,1.37,Acu-Link.com,2013-01-14 17:04:00,
2013-01-14 12:19:00,63.1,62.5,29.91,NW,315,0.0,-999.0,98,-99.99,,,1.40,Acu-Link.com,2013-01-14 17:19:00,
2013-01-14 12:35:00,62.4,61.8,29.91,WSW,247,1.7,-999.0,98,-99.99,,,1.42,Acu-Link.com,2013-01-14 17:35:00,
2013-01-14 12:50:00,62.1,61.5,29.90,WSW,247,0.0,-999.0,98,-99.99,,,1.43,Acu-Link.com,2013-01-14 17:50:00,
2013-01-14 13:05:00,61.7,61.1,29.90,South,180,0.0,-999.0,98,-99.99,,,1.44,Acu-Link.com,2013-01-14 18:05:00,
2013-01-14 13:20:00,61.7,61.1,29.90,ENE,67,0.0,-999.0,98,-99.99,,,1.45,Acu-Link.com,2013-01-14 18:20:00,
2013-01-14 13:36:00,61.5,60.9,29.90,WSW,247,0.0,-999.0,98,-99.99,,,1.48,Acu-Link.com,2013-01-14 18:36:00,
2013-01-14 13:51:00,61.3,60.7,29.90,West,270,1.1,-999.0,98,-99.99,,,1.48,Acu-Link.com,2013-01-14 18:51:00,
2013-01-14 14:06:00,61.2,60.6,29.91,South,180,0.0,-999.0,98,-99.99,,,1.48,Acu-Link.com,2013-01-14 19:06:00,
2013-01-14 14:21:00,61.2,60.6,29.91,SE,135,1.7,-999.0,98,-99.99,,,1.48,Acu-Link.com,2013-01-14 19:21:00,
2013-01-14 14:37:00,61.2,60.6,29.91,ESE,112,0.0,-999.0,98,-99.99,,,1.48,Acu-Link.com,2013-01-14 19:37:00,
2013-01-14 14:52:00,61.2,60.6,29.91,WSW,247,1.7,-999.0,98,-99.99,,,1.48,Acu-Link.com,2013-01-14 19:52:00,
2013-01-14 15:07:00,61.0,60.4,29.91,East,90,0.0,-999.0,98,-99.99,,,1.48,Acu-Link.com,2013-01-14 20:07:00,
2013-01-14 15:22:00,61.0,60.4,29.91,SSW,202,0.0,-999.0,98,-99.99,,,1.48,Acu-Link.com,2013-01-14 20:22:00,
2013-01-14 15:37:00,61.0,60.4,29.92,SW,225,1.1,-999.0,98,-99.99,,,1.50,Acu-Link.com,2013-01-14 20:37:00,
2013-01-14 15:53:00,61.0,60.4,29.92,East,90,0.0,-999.0,98,-99.99,,,1.53,Acu-Link.com,2013-01-14 20:53:00,
2013-01-14 16:08:00,61.2,60.6,29.93,ESE,112,0.0,-999.0,98,-99.99,,,1.54,Acu-Link.com,2013-01-14 21:08:00,
2013-01-14 16:23:00,61.2,60.6,29.93,WSW,247,1.1,-999.0,98,-99.99,,,1.54,Acu-Link.com,2013-01-14 21:23:00,
2013-01-14 16:38:00,61.0,60.4,29.93,ESE,112,1.1,-999.0,98,-99.99,,,1.55,Acu-Link.com,2013-01-14 21:38:00,
2013-01-14 16:53:00,61.0,60.4,29.94,West,270,0.0,-999.0,98,-99.99,,,1.55,Acu-Link.com,2013-01-14 21:53:00,
2013-01-14 17:09:00,61.0,60.4,29.94,SSE,157,0.0,-999.0,98,-99.99,,,1.55,Acu-Link.com,2013-01-14 22:09:00,
2013-01-14 17:24:00,61.0,60.4,29.94,ESE,112,0.0,-999.0,98,-99.99,,,1.55,Acu-Link.com,2013-01-14 22:24:00,
2013-01-14 17:39:00,60.8,60.2,29.94,ENE,67,0.0,-999.0,98,-99.99,,,1.56,Acu-Link.com,2013-01-14 22:39:00,
2013-01-14 17:54:00,60.8,60.2,29.94,ENE,67,0.0,-999.0,98,-99.99,,,1.57,Acu-Link.com,2013-01-14 22:54:00,
2013-01-14 18:09:00,60.8,60.2,29.94,SE,135,0.0,-999.0,98,-99.99,,,1.63,Acu-Link.com,2013-01-14 23:09:00,
2013-01-14 18:25:00,60.8,60.2,29.94,ESE,112,0.0,-999.0,98,-99.99,,,1.63,Acu-Link.com,2013-01-14 23:25:00,
2013-01-14 18:40:00,60.8,60.2,29.94,SW,225,0.0,-999.0,98,-99.99,,,1.63,Acu-Link.com,2013-01-14 23:40:00,
2013-01-14 18:55:00,60.8,60.2,29.93,SE,135,0.0,-999.0,98,-99.99,,,1.63,Acu-Link.com,2013-01-14 23:55:00,
2013-01-14 19:10:00,60.6,60.0,29.94,SSW,202,0.0,-999.0,98,-99.99,,,1.63,Acu-Link.com,2013-01-15 00:10:00,
2013-01-14 19:25:00,60.6,60.0,29.95,SSE,157,2.2,-999.0,98,-99.99,,,1.67,Acu-Link.com,2013-01-15 00:25:00,
2013-01-14 19:41:00,61.0,60.4,29.95,WNW,292,0.0,-999.0,98,-99.99,,,1.79,Acu-Link.com,2013-01-15 00:41:00,
2013-01-14 19:56:00,61.0,60.4,29.96,ENE,67,1.7,-999.0,98,-99.99,,,1.80,Acu-Link.com,2013-01-15 00:56:00,
2013-01-14 20:11:00,61.0,60.4,29.96,SSE,157,1.1,-999.0,98,-99.99,,,1.80,Acu-Link.com,2013-01-15 01:11:00,
2013-01-14 20:26:00,61.0,60.4,29.96,SSW,202,1.7,-999.0,98,-99.99,,,1.80,Acu-Link.com,2013-01-15 01:26:00,
2013-01-14 20:42:00,59.7,59.1,29.96,NNW,337,0.0,-999.0,98,-99.99,,,1.80,Acu-Link.com,2013-01-15 01:42:00,
2013-01-14 20:57:00,58.8,58.2,29.96,WNW,292,0.0,-999.0,98,-99.99,,,1.80,Acu-Link.com,2013-01-15 01:57:00,
2013-01-14 21:12:00,58.1,57.5,29.94,West,270,0.0,-999.0,98,-99.99,,,1.80,Acu-Link.com,2013-01-15 02:12:00,
2013-01-14 21:27:00,57.4,56.8,29.95,WSW,247,1.1,-999.0,98,-99.99,,,1.80,Acu-Link.com,2013-01-15 02:27:00,
2013-01-14 21:42:00,56.3,55.7,29.95,East,90,0.0,-999.0,98,-99.99,,,1.80,Acu-Link.com,2013-01-15 02:42:00,
2013-01-14 21:58:00,55.9,55.3,29.96,ESE,112,0.0,-999.0,98,-99.99,,,1.80,Acu-Link.com,2013-01-15 02:58:00,
2013-01-14 22:13:00,55.8,55.2,29.95,East,90,0.0,-999.0,98,-99.99,,,1.80,Acu-Link.com,2013-01-15 03:13:00,
2013-01-14 22:28:00,55.8,55.2,29.94,East,90,0.0,-999.0,98,-99.99,,,1.80,Acu-Link.com,2013-01-15 03:28:00,
2013-01-14 22:43:00,55.8,55.2,29.94,ENE,67,0.0,-999.0,98,-99.99,,,1.80,Acu-Link.com,2013-01-15 03:43:00,
2013-01-14 22:58:00,55.8,55.2,29.95,SSE,157,0.0,-999.0,98,-99.99,,,1.80,Acu-Link.com,2013-01-15 03:58:00,
2013-01-14 23:14:00,55.6,55.0,29.94,East,90,0.0,-999.0,98,-99.99,,,1.80,Acu-Link.com,2013-01-15 04:14:00,
2013-01-14 23:29:00,55.4,54.8,29.94,ENE,67,2.2,-999.0,98,-99.99,,,1.80,Acu-Link.com,2013-01-15 04:29:00,
2013-01-14 23:44:00,55.4,54.8,29.94,ESE,112,0.0,-999.0,98,-99.99,,,1.80,Acu-Link.com,2013-01-15 04:44:00,
2013-01-14 23:59:00,55.4,54.8,29.94,East,90,0.0,-999.0,98,-99.99,,,0.00,Acu-Link.com,2013-01-15 04:59:00,